Showing default

QIANFAN-141, 69087

Orbit data source: Space-Track

QIANFAN-141, 69087 is a Chinese payload satellite in LEO that was launched on Tue, 12 May 2026 UTC via a CHANG ZHENG 6A launch vehicle from the Taiyaun Space Center, China (TSC). Payload-class satellites include a variety of spacecraft equipped with specific instruments for various scientific and technological missions. These include communications satellites like Starlink; space stations such as the ISS; scientific satellites like the Hubble; Earth observation satellites from companies like Planet Labs, Umbra, and HawkEye 360; GPS; miniature CubeSats for education and research; and military/defense satellites.

Loading next visibility...
Identifier
69087, 2026-104Q
Orbit
LEO
Country
Flag of CNCN / PRC
Related business
Manufacturer
SECM
Mission
Operational spacecraft
Bus & Motor
QIANFAN, Unknown motor
Mass
267 kg wet, ~267 kg dry
Launch date (UTC)
2026-05-12 (4 weeks ago)
Launch vehicle
CHANG ZHENG 6A
Launch site
Taiyaun Space Center, China (TSC)
Object type
Payload
Rocket body
Debris
Shape & HBR
Unknown
Radar Cross Section
Large (>1 m²)

Expand to show TLE details & history
Last TLE update: 2 days ago

TLE from 2 days ago
0 QIANFAN-141
1 69087U 26104Q   26155.24425222  .00000120  00000-0  47921-4 0  9995
2 69087  88.9862 343.0836 0003855 139.3619 220.7861 14.21633171  3258
Epoch: 2026-06-04T05:51Z
TLE epoch observation values (Epoch: 2026-06-04T05:51:43.391Z)
Latitude
0.00003°
Longitude
2.4615°
Altitude
824.992 km
Speed
7.439 km/s
True Right ascension
22h 52m 20s
True Declination
0° 00' 00"
Sunlit
Object was in daylight at epoch
Visualization orbit readout
Latitude
Unknown
Longitude
Unknown
Altitude
Unknown
Speed
Unknown
Apparent Right ascension
Unknown
Apparent Declination
Unknown
Sunlit
N/A
Visualization observer readout
Local Sidereal Time
03:36:38
Azimuth
Unknown
Elevation
Unknown
Doppler factor
Unknown
Orbital elements
Apogee altitude
819.557 km
Perigee altitude
814.01 km
Semi-major axis
7,194.921 km
Eccentricity
0.00039
Inclination
88.9862°
RAAN
343.0836°
Arg. of periapsis
139.3619°
True anomaly
220.75725°
Mean anomaly
220.7861°
Eccentric anomaly
220.77168°
Mean motion
3.55635 °/min
Orbital period
101.23 mins
BSTAR
0.000047921
Loading maneuver chart data...
Computing Atmospheric mass density...
Loading historical data...
Loading historical data...
Loading historical data...
Loading historical data...
Loading historical data...
Loading historical data...
Loading historical data...

Documentation

Showing up to 5 results
|